• In India
  • List of Countries
  • For 7 days
  • Water Temperature
  • Satellite Maps
  • Weather Map
  • Weather Widgets
  • user-avatar
    Login

    Hourly Weather New Delhi

    Today, 27 May, Sunday

    Time Temperature Precipitation Wind Pressure Humidity
    00:00 +39°C° 0 mm 2 mps 730 mmHg 6%
    01:00 +37°C° 0 mm 1 mps 730 mmHg 6%
    02:00 +36°C° 0 mm 1 mps 730 mmHg 6%
    03:00 +35°C° 0 mm 1 mps 730 mmHg 6%
    04:00 +35°C° 0 mm 1 mps 730 mmHg 7%
    05:00 +35°C° 0 mm 1 mps 730 mmHg 7%
    06:00 +36°C° 0 mm 1 mps 730 mmHg 7%
    07:00 +39°C° 0 mm 2 mps 730 mmHg 6%
    08:00 +41°C° 0 mm 2 mps 731 mmHg 6%
    09:00 +43°C° 0 mm 2 mps 731 mmHg 5%
    10:00 +46°C° 0 mm 2 mps 731 mmHg 4%
    11:00 +48°C° 0 mm 3 mps 731 mmHg 3%
    12:00 +48°C° 0 mm 3 mps 730 mmHg 3%
    13:00 +50°C° 0 mm 4 mps 730 mmHg 3%
    14:00 +50°C° 0 mm 4 mps 729 mmHg 3%
    15:00 +50°C° 0 mm 4 mps 729 mmHg 3%
    16:00 +50°C° 0 mm 5 mps 728 mmHg 3%
    17:00 +49°C° 0 mm 4 mps 728 mmHg 2%
    18:00 +46°C° 0 mm 3 mps 728 mmHg 3%
    19:00 +45°C° 0 mm 2 mps 728 mmHg 3%
    20:00 +42°C° 0 mm 2 mps 728 mmHg 3%
    21:00 +41°C° 0 mm 2 mps 728 mmHg 4%
    22:00 +41°C° 0 mm 2 mps 728 mmHg 4%
    23:00 +40°C° 0 mm 1 mps 728 mmHg 4%

    Tomorrow, 28 May, Monday

    Time Temperature Precipitation Wind Pressure Humidity
    00:00 +39°C° 0 mm 1 mps 728 mmHg 5%
    01:00 +38°C° 0 mm 2 mps 728 mmHg 5%
    02:00 +38°C° 0 mm 2 mps 728 mmHg 6%
    03:00 +37°C° 0 mm 2 mps 728 mmHg 6%
    04:00 +35°C° 0 mm 1 mps 728 mmHg 6%
    05:00 +34°C° 0 mm 1 mps 728 mmHg 7%
    06:00 +36°C° 0 mm 1 mps 728 mmHg 6%
    07:00 +39°C° 0 mm 2 mps 729 mmHg 6%
    08:00 +41°C° 0 mm 2 mps 729 mmHg 6%
    09:00 +43°C° 0 mm 2 mps 729 mmHg 5%
    10:00 +46°C° 0 mm 2 mps 729 mmHg 5%
    11:00 +48°C° 0 mm 2 mps 729 mmHg 5%
    12:00 +48°C° 0 mm 2 mps 728 mmHg 4%
    13:00 +49°C° 0 mm 2 mps 728 mmHg 4%
    14:00 +49°C° 0 mm 2 mps 727 mmHg 3%
    15:00 +50°C° 0 mm 3 mps 726 mmHg 3%
    16:00 +50°C° 0 mm 3 mps 726 mmHg 3%
    17:00 +50°C° 0 mm 3 mps 725 mmHg 3%
    18:00 +47°C° 0 mm 3 mps 725 mmHg 4%
    19:00 +45°C° 0 mm 2 mps 725 mmHg 4%
    20:00 +43°C° 0 mm 2 mps 725 mmHg 5%
    21:00 +42°C° 0 mm 2 mps 726 mmHg 5%
    22:00 +41°C° 0 mm 1 mps 726 mmHg 5%
    23:00 +40°C° 0 mm 1 mps 726 mmHg 6%

    Day after tomorrow, 29 May, Tuesday

    Time Temperature Precipitation Wind Pressure Humidity
    00:00 +40°C° 0 mm 1 mps 726 mmHg 6%
    01:00 +39°C° 0 mm 1 mps 726 mmHg 6%
    02:00 +37°C° 0 mm 1 mps 725 mmHg 7%
    03:00 +37°C° 0 mm 1 mps 725 mmHg 7%
    04:00 +36°C° 0 mm 1 mps 726 mmHg 8%
    05:00 +35°C° 0 mm 1 mps 726 mmHg 8%
    06:00 +38°C° 0 mm 2 mps 727 mmHg 8%
    07:00 +40°C° 0 mm 3 mps 727 mmHg 9%
    08:00 +42°C° 0 mm 3 mps 728 mmHg 9%
    09:00 +44°C° 0 mm 3 mps 728 mmHg 8%
    10:00 +46°C° 0 mm 3 mps 728 mmHg 7%
    11:00 +48°C° 0 mm 3 mps 728 mmHg 7%
    12:00 +49°C° 0 mm 2 mps 727 mmHg 5%
    13:00 +49°C° 0 mm 2 mps 726 mmHg 4%
    14:00 +50°C° 0 mm 2 mps 726 mmHg 3%
    15:00 +50°C° 0 mm 2 mps 725 mmHg 3%
    16:00 +50°C° 0 mm 2 mps 725 mmHg 3%
    17:00 +50°C° 0 mm 2 mps 724 mmHg 3%
    18:00 +48°C° 0 mm 2 mps 724 mmHg 3%
    19:00 +46°C° 0 mm 1 mps 725 mmHg 4%
    20:00 +44°C° 0 mm 1 mps 725 mmHg 4%
    21:00 +43°C° 0 mm 1 mps 725 mmHg 4%
    22:00 +42°C° 0 mm 2 mps 725 mmHg 5%
    23:00 +41°C° 0 mm 2 mps 725 mmHg 5%

    30 May, Wednesday

    Time Temperature Precipitation Wind Pressure Humidity
    00:00 +41°C° 0 mm 1 mps 725 mmHg 5%
    01:00 +40°C° 0 mm 1 mps 725 mmHg 5%
    02:00 +39°C° 0 mm 1 mps 725 mmHg 6%
    03:00 +39°C° 0 mm 1 mps 725 mmHg 7%
    04:00 +39°C° 0 mm 2 mps 726 mmHg 8%
    05:00 +38°C° 0 mm 2 mps 726 mmHg 10%
    06:00 +39°C° 0 mm 3 mps 727 mmHg 13%
    07:00 +40°C° 0 mm 3 mps 728 mmHg 16%
    08:00 +42°C° 0 mm 4 mps 728 mmHg 20%
    09:00 +43°C° 0 mm 3 mps 728 mmHg 18%
    10:00 +45°C° 0 mm 3 mps 728 mmHg 16%
    11:00 +47°C° 0 mm 3 mps 728 mmHg 15%
    12:00 +48°C° 0 mm 2 mps 728 mmHg 13%
    13:00 +49°C° 0 mm 2 mps 727 mmHg 11%
    14:00 +50°C° 0 mm 2 mps 727 mmHg 9%
    15:00 +50°C° 0 mm 2 mps 726 mmHg 9%
    16:00 +49°C° 0 mm 2 mps 726 mmHg 8%
    17:00 +49°C° 0 mm 2 mps 726 mmHg 8%
    18:00 +48°C° 0 mm 2 mps 726 mmHg 9%
    19:00 +47°C° 0 mm 2 mps 726 mmHg 10%
    20:00 +45°C° 0 mm 2 mps 727 mmHg 11%
    21:00 +45°C° 0 mm 2 mps 727 mmHg 12%
    22:00 +43°C° 0 mm 2 mps 727 mmHg 12%
    23:00 +42°C° 0 mm 2 mps 727 mmHg 13%

    31 May, Thursday

    Time Temperature Precipitation Wind Pressure Humidity
    00:00 +41°C° 0 mm 2 mps 727 mmHg 14%
    01:00 +41°C° 0 mm 2 mps 727 mmHg 14%
    02:00 +40°C° 0 mm 2 mps 726 mmHg 15%
    03:00 +39°C° 0 mm 2 mps 727 mmHg 16%
    04:00 +39°C° 0 mm 2 mps 727 mmHg 17%
    05:00 +38°C° 0 mm 2 mps 727 mmHg 17%
    06:00 +40°C° 0 mm 3 mps 728 mmHg 16%
    07:00 +42°C° 0 mm 3 mps 729 mmHg 15%
    08:00 +44°C° 0 mm 3 mps 730 mmHg 14%
    09:00 +46°C° 0 mm 3 mps 730 mmHg 12%
    10:00 +47°C° 0 mm 3 mps 730 mmHg 10%
    11:00 +49°C° 0 mm 2 mps 730 mmHg 8%
    12:00 +50°C° 0 mm 2 mps 729 mmHg 7%
    13:00 +51°C° 0 mm 2 mps 728 mmHg 6%
    14:00 +52°C° 0 mm 2 mps 728 mmHg 4%
    15:00 +51°C° 0 mm 2 mps 727 mmHg 4%
    16:00 +51°C° 0 mm 2 mps 727 mmHg 4%
    17:00 +51°C° 0 mm 2 mps 726 mmHg 4%
    18:00 +49°C° 0 mm 2 mps 727 mmHg 4%
    19:00 +48°C° 0 mm 2 mps 727 mmHg 5%
    20:00 +46°C° 0 mm 2 mps 727 mmHg 5%
    21:00 +45°C° 0 mm 2 mps 727 mmHg 5%
    22:00 +43°C° 0 mm 1 mps 727 mmHg 6%
    23:00 +42°C° 0 mm 1 mps 727 mmHg 6%

    1 June, Friday

    Time Temperature Precipitation Wind Pressure Humidity
    00:00 +41°C° 0 mm 2 mps 727 mmHg 7%
    01:00 +40°C° 0 mm 2 mps 727 mmHg 8%
    02:00 +40°C° 0 mm 2 mps 727 mmHg 9%
    03:00 +39°C° 0 mm 3 mps 727 mmHg 12%
    04:00 +38°C° 0 mm 3 mps 728 mmHg 15%
    05:00 +38°C° 0 mm 4 mps 728 mmHg 17%
    06:00 +40°C° 0 mm 4 mps 729 mmHg 19%
    07:00 +41°C° 0 mm 5 mps 730 mmHg 20%
    08:00 +43°C° 0 mm 5 mps 731 mmHg 22%
    09:00 +45°C° 0 mm 4 mps 731 mmHg 19%
    10:00 +47°C° 0 mm 4 mps 731 mmHg 16%
    11:00 +48°C° 0 mm 3 mps 730 mmHg 13%
    12:00 +50°C° 0 mm 3 mps 730 mmHg 11%
    13:00 +51°C° 0 mm 3 mps 729 mmHg 9%
    14:00 +52°C° 0 mm 3 mps 728 mmHg 7%
    15:00 +52°C° 0 mm 3 mps 728 mmHg 6%
    16:00 +52°C° 0 mm 3 mps 727 mmHg 5%
    17:00 +52°C° 0 mm 4 mps 727 mmHg 4%
    18:00 +51°C° 0 mm 3 mps 727 mmHg 5%
    19:00 +48°C° 0 mm 3 mps 727 mmHg 5%
    20:00 +46°C° 0 mm 2 mps 727 mmHg 6%
    21:00 +45°C° 0 mm 2 mps 727 mmHg 7%
    22:00 +43°C° 0 mm 2 mps 728 mmHg 8%
    23:00 +42°C° 0 mm 2 mps 728 mmHg 9%
    Show more